www.pogodaiklimat.ru

Погода и климат >> Архив погоды >> Индия >> Тамилнад >> Коимбатур


ПОГОДА в Коимбатуре

  • Прогноз погоды в Коимбатуре
  • Монитор погоды в Коимбатуре

АРХИВ ПОГОДЫ в Коимбатуре

Время (UTC), дата Ветер
(напр.,м/с)
 
Видим.   Явления Облачность Т
(С)
Тd
(С)
f
(%)
Тe
(С)
Тes
(С)
Комфортность P
(гПа)
Po
(гПа)
Тmin
(С)
Tmax
(С)
R
(мм)
R24
(мм)
S
(см)
21 11.02 СВ 3 4000 м мгла 5/3 450 м
[Sc Ci fib]
+23.0 +17.9 73 +28 +28 душно 1015.6 970.4
00 12.02 С 2 4000 м дымка 4/3 450 м
[Sc Ci fib]
+22.0 +18.2 79 +27 +27 душно 1015.8 970.5
03 12.02 С 3 4000 м дымка 4/0 300 м
[Ci fib]
+23.4 +18.7 75 +30 +33 очень
душно
1018.5 973.3 +21.0 +32.6
06 12.02 В 4 4000 м мгла 5/4 450 м
[Sc Ci fib]
+29.4 +15.9 44 +32 +39 душно 1017.0 972.8
09 12.02 В 5 4000 м мгла 5/4 450 м
[Sc Ci fib]
+31.8 +14.1 34 +33 +37 жарко 1012.6 968.9
12 12.02 СВ 6 4000 м мгла 3/1 450 м
[Sc Ci fib]
+31.4 +12.6 32 +32 +32 жарко 1012.4 968.7 +32.9
15 12.02 В 3 4000 м мгла 3/1 450 м
[Sc Ci fib]
+28.2 +14.7 44 +31 +31 душно 1015.6 971.3
18 12.02 В 6 4000 м мгла 3/1 450 м
[Sc Ci fib]
+26.0 +15.9 54 +29 +29 душно 1018.2 973.3
21 12.02 СВ 3 4000 м мгла 3/0 300 м
[Ci fib]
+23.4 +17.6 70 +29 +29 душно 1017.5 972.4
00 13.02 нст 1 4000 м дымка 1/0
[Ci fib]
+21.4 +18.2 82 +26 +26 душно 1017.7 972.3
03 13.02 СВ 2 2000 м дымка 1/0
[Ci fib]
+23.2 +18.5 75 +29 +34 душно 1019.2 974.0 +20.6 +32.9
06 13.02 СВ 5 4000 м мгла ясно +29.2 +14.8 42 +32 +41 душно 1017.4 973.1
09 13.02 В 6 4000 м мгла 3/1 450 м
[Sc Ci fib]
+32.6 +10.5 26 +32 +36 жарко 1013.4 969.8
12 13.02 В 5 4000 м мгла 3/0
[Ci fib]
+32.4 +12.7 30 +33 +33 жарко 1012.8 969.2 +33.6
15 13.02 В 4 4000 м мгла 3/0
[Ci fib]
+28.4 +13.2 39 +30 +30 жарко 1015.6 971.4
18 13.02 В 3 4000 м мгла 3/1 450 м
[Sc Ci fib]
+26.2 +14.5 49 +29 +29 жарко 1016.8 972.2
21 13.02 В 2 4000 м мгла 3/1 450 м
[Sc Ci fib]
+24.4 +15.9 59 +28 +28 душно 1015.2 970.3
00 14.02 нст 1 2000 м дымка 5/3 450 м
[Sc Ci fib]
+21.2 +17.7 80 +25 +25 комфорт 1015.6 970.3
03 14.02 В 3 2000 м дымка 3/0
[Ci fib]
+23.6 +16.8 66 +27 +31 жарко 1017.4 972.3 +20.4 +33.6
06 14.02 СВ 3 4000 м мгла 3/0
[Ci fib]
+30.0 +16.6 44 +33 +47 душно 1015.4 971.3
09 14.02 В 5 4000 м мгла 4/1 450 м
[Sc diur, vesp Ci fib]
+33.2 +12.9 29 +34 +39 очень
жарко
1010.4 967.1
12 14.02 В 4 4000 м мгла 5/4 450 м
[Sc diur, vesp Ci fib]
+33.0 +14.0 32 +34 +35 очень
жарко
1009.8 966.3 +34.6
15 14.02 В 3 4000 м мгла 4/1 450 м
[Sc diur, vesp Ci fib]
+29.2 +17.2 48 +33 +33 очень
душно
1012.5 968.5
18 14.02 В 3 4000 м мгла 4/3 450 м
[Sc Ci fib]
+27.0 +18.6 60 +32 +32 очень
душно
1014.5 970.0
21 14.02 В 2 4000 м мгла 6/3 360 м
[Sc Ac trans Ci fib]
+25.4 +19.9 72 +31 +31 очень
душно
1014.0 969.3
00 15.02 нст 2 4000 м дымка 6/3 450 м
[Sc Ac trans Ci fib]
+23.4 +20.3 83 +31 +31 очень
душно
1014.4 969.5
03 15.02 В 3 4000 м дымка 8/5 450 м
[Sc Ci sp]
+24.6 +20.6 78 +31 +32 очень
душно
1016.7 971.8 +22.6 +34.6
06 15.02 В 3 4000 м мгла 8/5 450 м
[Sc diur, vesp Ci fib]
+29.6 +18.8 52 +35 +41 очень
душно
1015.0 970.9
09 15.02 СВ 2 4000 м мгла 6/4 450 м
[Sc diur, vesp Ci fib]
+32.8 +17.6 40 +37 +45 очень
душно
1011.8 968.2
12 15.02 СВ 3 4000 м мгла 3/1 450 м
[Sc Ci fib]
+32.4 +15.8 37 +35 +35 душно 1010.5 967.0 +34.0
15 15.02 штиль 0 4000 м мгла 5/1 450 м
[Sc Ac trans Ci fib]
+29.0 +15.7 44 +32 +32 душно 1013.4 969.2
18 15.02 Ю 2 4000 м мгла 5/1 450 м
[Sc Ac trans Ci fib]
+26.0 +20.2 70 +32 +32 очень
душно
1015.5 970.8
21 15.02 штиль 0 4000 м дымка 5/1 450 м
[Sc Ci fib]
+24.4 +20.7 80 +30 +30 очень
душно
1014.0 969.1
00 16.02 штиль 0 4000 м дымка 4/1 450 м
[Sc Ci fib]
+24.8 +21.2 80 +31 +31 очень
душно
1013.6 968.8
03 16.02 СВ 2 4000 м дымка 4/3 450 м
[Sc Ci fib]
+25.0 +20.7 77 +31 +34 очень
душно
1016.1 971.2 +23.2 +34.0
06 16.02 С 3 4000 м мгла 5/4 450 м
[Sc diur, vesp Ci fib]
+31.2 +18.6 47 +36 +46 очень
душно
1014.5 970.7
09 16.02 ЮВ 3 4000 м мгла 4/3 450 м
[Sc Ci fib]
+34.6 +16.4 34 +37 +45 очень
душно
1009.9 966.7
12 16.02 нст 1 4000 м мгла 5/4 450 м
[Sc diur, vesp Ci fib]
+34.6 +15.1 31 +36 +37 душно 1008.5 965.3 +36.7
15 16.02 Ю 4 4000 м мгла 5/3 450 м
[Sc Ac trans Ci fib]
+30.4 +20.5 55 +37 +37 очень
душно
1012.1 968.2
18 16.02 Ю 3 4000 м мгла 5/3 450 м
[Sc Ac trans Ci fib]
+27.0 +20.6 68 +34 +34 очень
душно
1014.1 969.6
21 16.02 Ю 2 4000 м мгла 6/3 450 м
[Sc Ac trans Ci fib]
+26.0 +22.4 81 +34 +34 очень
душно
1012.9 968.3
00 17.02 ЮЗ 2 4000 м дымка 5/3 450 м
[Sc Ci fib]
+25.0 +22.3 85 +33 +33 очень
душно
1012.8 968.0
03 17.02 С 3 4000 м мгла 3/0
[Ci fib]
+26.2 +20.7 72 +33 +37 очень
душно
1014.9 970.4 +24.0 +36.7
06 17.02 нст 1 4000 м мгла 4/3 450 м
[Sc Ci fib]
+32.0 +19.6 48 +38 +52 опасность
солнечного
удара
1013.5 969.7
09 17.02 нст 2 4000 м мгла 4/3 450 м
[Sc Ci fib]
+35.4 +17.5 35 +39 +49 очень
душно
1009.0 966.0
12 17.02 Ю 5 4000 м мгла 3/0
[Ci fib]
+34.0 +18.0 39 +38 +38 очень
душно
1007.8 964.6 +36.2
15 17.02 Ю 4 4000 м мгла 3/1 450 м
[Sc Ci fib]
+28.8 +19.6 58 +35 +35 очень
душно
1010.6 966.6
18 17.02 4000 м мгла 3/1 450 м
[Sc Ci fib]
+25.8 +18.6 64 1011.7 967.2
21 17.02 Ю 2 4000 м мгла 3/1 450 м
[Sc Ci fib]
+24.2 +21.2 83 +31 +31 очень
душно
1010.3 965.6
00 18.02 штиль 0 2000 м дымка 5/3 450 м
[Sc Ci fib]
+23.4 +21.3 88 +31 +31 очень
душно
1011.3 966.5
03 18.02 нст 2 4000 м мгла 3/0
[Ci fib]
+25.8 +21.0 75 +32 +38 очень
душно
1013.8 969.2 +22.6 +36.2
06 18.02 В 3 4000 м мгла 3/0
[Ci fib]
+32.8 +18.7 43 +38 +53 опасность
солнечного
удара
1012.3 968.7
09 18.02 нст 2 4000 м мгла 4/3 450 м
[Sc diur, vesp Ci fib]
+35.8 +13.7 27 +37 +46 душно 1006.7 963.8
12 18.02 Ю 5 4000 м мгла 4/3 450 м
[Sc diur, vesp Ci fib]
+34.8 +16.2 33 +37 +37 очень
душно
1005.9 962.9 +37.1
15 18.02 Ю 4 4000 м мгла 3/1 450 м
[Sc diur, vesp Ci fib]
+28.2 +18.9 57 +33 +33 очень
душно
1009.3 965.4
18 18.02 Ю 4 4000 м мгла 3/1
[Sc Ci fib]
+25.2 +19.6 71 +31 +31 очень
душно
1010.9 966.4

 

Местоположение метеостанции Коимбатур (Тамилнад, Индия): широта 11.03 долгота 77.05 высота над уровнем моря 399 м.

В архиве по умолчанию представлена погода в Коимбатуре за последнюю неделю. Архивные данные за месяц целиком и за предыдущие месяцы, начиная с января 2011 года, Вы можете получить, выбрав интересующий диапазон дат из раскрывающегося списка и нажав кнопку "Ввод!".


*Определитесь, кто Вы:
робот инопланетянин человек

Внимание! Время в таблицах - всемирное. Для получения местного времени необходимо прибавить поправку, которая равна 5.5 ч.

Смотрите также архив погоды в соседних городах и на ближайших метеорологических станциях:

Погода в Кунуре (Тамилнад, Индия) (45 км)
Погода в Палаккаде (Керала, Индия) (52 км)
Погода в Удагамандаламе (Тамилнад, Индия) (54 км)
Погода в Валпарае (Тамилнад, Индия) (84 км)
Погода в Кодаиканале (Тамилнад, Индия) (100 км)
Погода в Чамраджнагаре (Карнатака, Индия) (101 км)
Погода в Триссуре (Керала, Индия) (107 км)
Погода в Парамати (Тамилнад, Индия) (113 км)
Погода в Периякуламе (Тамилнад, Индия) (115 км)
Погода в Карипере (Керала, Индия) (121 км)

Пояснения к столбцам:

Ветер - указаны скорость ветра в м/с - средняя за 10 мин, порывы в срок и между сроками (в фигурных скобках) и направление, откуда дует ветер: С - северный, СВ - северо-восточный, В - восточный, ЮВ - юго-восточный, Ю - южный, ЮЗ - юго-западный, З - западный, СЗ - северо-западный.
Видимость - горизонтальная дальность видимости в метрах или километрах. При видимости от 1 до 10 км при отсутствии осадков обычно наблюдается дымка, при ухудшении видимости до 1 км и менее - туман. В сухую погоду видимость может ухудшаться дымом, пылью или мглою.
Явления - указаны атмосферные явления, наблюдавшиеся в срок или в последний час перед сроком; фигурными скобками обозначены явления, наблюдавшиеся между сроками (за 1-3 часа до срока); квадратными скобками обозначены град или гололедные отложения с указанием их диаметра в мм.
Облачность - указаны через наклонную черту общая и нижняя облачность в баллах и высота нижней границы облаков в метрах; квадратными скобками обозначены формы облаков: Ci - перистые, Cs - перисто-слоистые, Cc - перисто-кучевые, Ac - высококучевые, As - высокослоистые, Sc - слоисто-кучевые, Ns - слоисто-дождевые, Cu - кучевые, Cb - кучево-дождевые. Подробнее классификацию облаков см. в Атласе облаков (PDF).
T - Температура воздуха - температура, измеренная на высоте 2 м над землей.
Td - Температура точки росы - температура, при понижении до которой содержащийся в воздухе водяной пар достигнет насыщения.
f - Относительная влажность воздуха - влажноcть воздуха, измеренная на высоте 2 м над землей.
Te - Эффективная температура - температура, которую ощущает одетый по сезону человек в тени. Характеристика душности погоды. При расчете учитывается влияние влажности воздуха и скорости ветра на теплоощущения человека.
Tes - Эффективная температура на солнце - температура, которую ощущает человек, с поправкой на солнечный нагрев. Характеристика знойности погоды. Зависит от высоты солнца над горизонтом, облачности и скорости ветра. Ночью, в пасмурную погоду, а также при ветре 12 м/с и более поправка равна нулю.
P - Атмосферное давление - приведенное к уровню моря атмосферное давление.
Po - Атмосферное давление - измеренное на уровне метеостанции атмосферное давление.
Tmin - Минимальная температура - минимум температуры воздуха на высоте 2 м над землей.
Tmax - Максимальная температура - максимум температуры воздуха на высоте 2 м над землей.
R - Количество осадков - Количество выпавших осадков за период времени, мм. При наведении курсора мыши на число - период времени, за который выпало указанное количество осадков.
R24 - Количество осадков - Количество выпавших осадков за 24 часа, мм.
S - Снежный покров - Высота снежного покрова, см. При наведении курсора мыши на число - состояние снежного покрова и степень покрытия местности в баллах.